Time,TemperatureF,DewpointF,PressureIn,WindDirection,WindDirectionDegrees,WindSpeedMPH,WindSpeedGustMPH,Humidity,HourlyPrecipIn,Conditions,Clouds,dailyrainin,SoftwareType,DateUTC
2013-08-04 00:03:00,68.0,64.0,29.98,NNW,348,0.0,0.0,86,0.00,,,0.00,,2013-08-04 04:03:00,
2013-08-04 00:12:00,68.0,64.0,29.98,NNW,348,0.0,0.0,86,0.00,,,0.00,,2013-08-04 04:12:00,
2013-08-04 00:22:00,68.0,64.0,29.98,NNW,348,0.0,0.0,86,0.00,,,0.00,,2013-08-04 04:22:00,
2013-08-04 00:32:00,68.0,64.0,29.98,NNW,348,0.0,0.0,86,0.00,,,0.00,,2013-08-04 04:32:00,
2013-08-04 00:52:00,67.0,63.0,29.98,NNW,348,0.0,0.0,87,0.00,,,0.00,,2013-08-04 04:52:00,
2013-08-04 01:02:00,67.0,63.0,29.98,NNW,348,0.0,0.0,87,0.00,,,0.00,,2013-08-04 05:02:00,
2013-08-04 01:12:00,67.0,63.0,29.98,NNW,348,0.0,0.0,87,0.00,,,0.00,,2013-08-04 05:12:00,
2013-08-04 01:22:00,67.0,63.0,29.98,NNW,348,0.0,0.0,87,0.00,,,0.00,,2013-08-04 05:22:00,
2013-08-04 01:32:00,67.0,63.0,29.98,NNW,348,0.0,0.0,87,0.00,,,0.00,,2013-08-04 05:32:00,
2013-08-04 02:02:00,67.0,63.0,29.98,NNW,348,0.0,0.0,88,0.00,,,0.00,,2013-08-04 06:02:00,
2013-08-04 02:12:00,67.0,63.0,29.98,NNW,348,0.0,0.0,88,0.00,,,0.00,,2013-08-04 06:12:00,
2013-08-04 02:22:00,67.0,64.0,29.97,NNW,348,0.0,0.0,89,0.00,,,0.00,,2013-08-04 06:22:00,
2013-08-04 02:32:00,67.0,64.0,29.97,NNW,348,0.0,0.0,89,0.00,,,0.00,,2013-08-04 06:32:00,
2013-08-04 02:43:00,67.0,64.0,29.97,NNW,348,0.0,0.0,89,0.00,,,0.00,,2013-08-04 06:43:00,
2013-08-04 02:52:00,66.0,62.0,29.96,NNW,348,0.0,0.0,88,0.00,,,0.00,,2013-08-04 06:52:00,
2013-08-04 03:02:00,66.0,63.0,29.97,NNW,348,0.0,0.0,89,0.00,,,0.00,,2013-08-04 07:02:00,
2013-08-04 03:12:00,66.0,63.0,29.96,NNW,348,0.0,0.0,89,0.00,,,0.00,,2013-08-04 07:12:00,
2013-08-04 03:22:00,66.0,63.0,29.96,NNW,348,0.0,0.0,89,0.00,,,0.00,,2013-08-04 07:22:00,
2013-08-04 03:33:00,66.0,63.0,29.96,NNW,348,0.0,0.0,89,0.00,,,0.00,,2013-08-04 07:33:00,
2013-08-04 03:43:00,66.0,63.0,29.96,NNW,348,0.0,0.0,89,0.00,,,0.00,,2013-08-04 07:43:00,
2013-08-04 03:53:00,66.0,63.0,29.96,NNW,348,0.0,0.0,89,0.00,,,0.00,,2013-08-04 07:53:00,
2013-08-04 04:02:00,66.0,63.0,29.96,NNW,348,0.0,0.0,89,0.00,,,0.00,,2013-08-04 08:02:00,
2013-08-04 04:12:00,66.0,63.0,29.96,NNW,348,0.0,0.0,89,0.00,,,0.00,,2013-08-04 08:12:00,
2013-08-04 04:23:00,66.0,63.0,29.96,NNW,348,0.0,0.0,90,0.00,,,0.00,,2013-08-04 08:23:00,
2013-08-04 04:33:00,66.0,63.0,29.96,NNW,348,0.0,0.0,91,0.00,,,0.00,,2013-08-04 08:33:00,
2013-08-04 04:43:00,66.0,63.0,29.96,NNW,348,0.0,0.0,91,0.00,,,0.00,,2013-08-04 08:43:00,
2013-08-04 04:53:00,66.0,63.0,29.96,NNW,348,0.0,0.0,91,0.00,,,0.00,,2013-08-04 08:53:00,
2013-08-04 05:02:00,66.0,63.0,29.96,NNW,348,0.0,0.0,91,0.00,,,0.00,,2013-08-04 09:02:00,
2013-08-04 05:12:00,66.0,63.0,29.96,NNW,348,0.0,0.0,91,0.00,,,0.00,,2013-08-04 09:12:00,
2013-08-04 05:22:00,66.0,63.0,29.96,NNW,348,0.0,0.0,91,0.00,,,0.00,,2013-08-04 09:22:00,
2013-08-04 05:32:00,66.0,63.0,29.96,North,360,0.0,0.0,91,0.00,,,0.00,,2013-08-04 09:32:00,
2013-08-04 05:43:00,66.0,63.0,29.96,North,360,0.0,0.0,91,0.00,,,0.00,,2013-08-04 09:43:00,
2013-08-04 05:52:00,65.0,62.0,29.96,North,360,0.0,0.0,91,0.00,,,0.00,,2013-08-04 09:52:00,
2013-08-04 06:02:00,65.0,62.0,29.97,North,360,0.0,0.0,91,0.00,,,0.00,,2013-08-04 10:02:00,
2013-08-04 06:12:00,65.0,62.0,29.97,North,360,0.0,0.0,91,0.00,,,0.00,,2013-08-04 10:12:00,
2013-08-04 06:22:00,65.0,62.0,29.97,North,360,0.0,0.0,91,0.00,,,0.00,,2013-08-04 10:22:00,
2013-08-04 06:32:00,66.0,64.0,29.97,North,5,0.0,0.0,93,0.00,,,0.00,,2013-08-04 10:32:00,
2013-08-04 06:43:00,66.0,64.0,29.97,NNW,343,0.0,0.0,93,0.00,,,0.00,,2013-08-04 10:43:00,
2013-08-04 06:53:00,66.0,64.0,29.97,NNW,343,0.0,0.0,93,0.00,,,0.00,,2013-08-04 10:53:00,
2013-08-04 07:02:00,66.0,64.0,29.97,NNW,343,0.0,0.0,93,0.00,,,0.00,,2013-08-04 11:02:00,
2013-08-04 07:22:00,67.0,65.0,29.97,NNE,22,0.0,0.0,92,0.00,,,0.00,,2013-08-04 11:22:00,
2013-08-04 07:32:00,67.0,64.0,29.97,NNE,22,0.0,0.0,91,0.00,,,0.00,,2013-08-04 11:32:00,
2013-08-04 07:42:00,67.0,64.0,29.97,NNE,22,0.0,0.0,91,0.00,,,0.00,,2013-08-04 11:42:00,
2013-08-04 07:53:00,67.0,64.0,29.97,NNE,22,0.0,0.0,91,0.00,,,0.00,,2013-08-04 11:53:00,
2013-08-04 08:02:00,67.0,64.0,29.97,NNE,22,0.0,0.0,91,0.00,,,0.00,,2013-08-04 12:02:00,
2013-08-04 08:13:00,67.0,64.0,29.97,NNE,22,0.0,0.0,91,0.00,,,0.00,,2013-08-04 12:13:00,
2013-08-04 08:22:00,67.0,64.0,29.97,NNE,22,0.0,0.0,91,0.00,,,0.00,,2013-08-04 12:22:00,
2013-08-04 08:33:00,67.0,64.0,29.97,NNE,22,0.0,0.0,91,0.00,,,0.00,,2013-08-04 12:33:00,
2013-08-04 08:43:00,67.0,64.0,29.97,NNE,22,0.0,0.0,91,0.00,,,0.00,,2013-08-04 12:43:00,
2013-08-04 08:53:00,68.0,65.0,29.98,WSW,252,0.0,0.0,91,0.00,,,0.00,,2013-08-04 12:53:00,
2013-08-04 09:02:00,68.0,65.0,29.98,WSW,252,0.0,0.0,91,0.00,,,0.00,,2013-08-04 13:02:00,
2013-08-04 09:12:00,68.0,65.0,29.98,WSW,252,0.0,0.0,91,0.00,,,0.00,,2013-08-04 13:12:00,
2013-08-04 09:22:00,68.0,65.0,29.98,WSW,252,0.0,0.0,91,0.00,,,0.00,,2013-08-04 13:22:00,
2013-08-04 09:32:00,69.0,66.0,29.98,SW,215,0.0,0.0,89,0.00,,,0.00,,2013-08-04 13:32:00,
2013-08-04 09:52:00,71.0,67.0,29.98,SSW,205,0.0,0.0,88,0.00,,,0.00,,2013-08-04 13:52:00,
2013-08-04 10:02:00,71.0,67.0,29.98,SSE,158,0.0,0.0,86,0.00,,,0.00,,2013-08-04 14:02:00,
2013-08-04 10:12:00,71.0,66.0,29.98,SW,233,0.0,0.0,85,0.00,,,0.00,,2013-08-04 14:12:00,
2013-08-04 10:22:00,72.0,66.0,29.98,East,91,0.0,0.0,82,0.00,,,0.00,,2013-08-04 14:22:00,
2013-08-04 10:32:00,73.0,67.0,29.98,SSE,149,0.0,0.0,81,0.00,,,0.00,,2013-08-04 14:32:00,
2013-08-04 10:43:00,73.0,67.0,29.98,SSE,149,0.0,0.0,81,0.00,,,0.00,,2013-08-04 14:43:00,
2013-08-04 10:53:00,74.0,67.0,29.96,SSW,200,0.0,0.0,79,0.00,,,0.00,,2013-08-04 14:53:00,
2013-08-04 11:02:00,74.0,67.0,29.96,SSW,200,0.0,0.0,79,0.00,,,0.00,,2013-08-04 15:02:00,
2013-08-04 11:12:00,74.0,67.0,29.96,SSW,200,0.0,0.0,79,0.00,,,0.00,,2013-08-04 15:12:00,
2013-08-04 11:22:00,74.0,67.0,29.96,SSW,200,0.0,0.0,79,0.00,,,0.00,,2013-08-04 15:22:00,
2013-08-04 11:32:00,74.0,67.0,29.96,SSW,200,0.0,0.0,79,0.00,,,0.00,,2013-08-04 15:32:00,
2013-08-04 11:43:00,75.0,66.0,29.98,SSW,204,0.0,0.0,74,0.00,,,0.00,,2013-08-04 15:43:00,
2013-08-04 11:53:00,75.0,66.0,29.98,SSW,204,0.0,0.0,74,0.00,,,0.00,,2013-08-04 15:53:00,
2013-08-04 12:02:00,76.0,68.0,29.97,South,188,0.0,0.0,76,0.00,,,0.00,,2013-08-04 16:02:00,
2013-08-04 12:12:00,76.0,67.0,29.98,ENE,71,0.0,0.0,75,0.00,,,0.00,,2013-08-04 16:12:00,
2013-08-04 12:22:00,76.0,67.0,29.98,ENE,71,0.0,0.0,75,0.00,,,0.00,,2013-08-04 16:22:00,
2013-08-04 12:33:00,76.0,67.0,29.98,ENE,71,0.0,0.0,75,0.00,,,0.00,,2013-08-04 16:33:00,
2013-08-04 12:42:00,76.0,67.0,29.98,ENE,71,0.0,0.0,75,0.00,,,0.00,,2013-08-04 16:42:00,
2013-08-04 12:53:00,77.0,67.0,29.97,WSW,253,0.0,0.0,72,0.00,,,0.00,,2013-08-04 16:53:00,
2013-08-04 13:02:00,78.0,68.0,29.97,SW,221,0.0,0.0,71,0.00,,,0.00,,2013-08-04 17:02:00,
2013-08-04 13:12:00,78.0,68.0,29.97,SW,221,0.0,0.0,71,0.00,,,0.00,,2013-08-04 17:12:00,
2013-08-04 13:22:00,77.0,66.0,29.96,South,171,0.0,0.0,69,0.00,,,0.00,,2013-08-04 17:22:00,
2013-08-04 13:32:00,77.0,66.0,29.96,South,175,0.0,0.0,69,0.00,,,0.00,,2013-08-04 17:32:00,
2013-08-04 13:43:00,77.0,66.0,29.96,South,175,0.0,0.0,69,0.00,,,0.00,,2013-08-04 17:43:00,
2013-08-04 13:53:00,77.0,66.0,29.96,South,175,0.0,0.0,69,0.00,,,0.00,,2013-08-04 17:53:00,
2013-08-04 14:02:00,78.0,69.0,29.96,NE,48,0.0,0.0,75,0.00,,,0.00,,2013-08-04 18:02:00,
2013-08-04 14:12:00,79.0,65.0,29.96,West,273,0.0,0.0,63,0.00,,,0.00,,2013-08-04 18:12:00,
2013-08-04 14:23:00,79.0,65.0,29.96,West,273,0.0,0.0,63,0.00,,,0.00,,2013-08-04 18:23:00,
2013-08-04 14:33:00,79.0,67.0,29.95,SSW,210,0.0,0.0,66,0.00,,,0.00,,2013-08-04 18:33:00,
2013-08-04 14:43:00,78.0,65.0,29.94,South,180,0.0,0.0,64,0.00,,,0.00,,2013-08-04 18:43:00,
2013-08-04 14:52:00,78.0,65.0,29.94,South,180,0.0,0.0,64,0.00,,,0.00,,2013-08-04 18:52:00,
2013-08-04 15:02:00,78.0,66.0,29.95,SSE,154,0.0,0.0,67,0.00,,,0.00,,2013-08-04 19:02:00,
2013-08-04 15:12:00,78.0,66.0,29.95,SSE,154,0.0,0.0,67,0.00,,,0.00,,2013-08-04 19:12:00,
2013-08-04 15:22:00,76.0,66.0,29.95,West,262,0.0,0.0,71,0.00,,,0.00,,2013-08-04 19:22:00,
2013-08-04 15:32:00,77.0,66.0,29.95,SE,129,0.0,0.0,69,0.00,,,0.00,,2013-08-04 19:32:00,
2013-08-04 15:44:00,77.0,66.0,29.95,SE,129,0.0,0.0,69,0.00,,,0.00,,2013-08-04 19:44:00,
2013-08-04 15:53:00,77.0,65.0,29.95,ESE,115,0.0,0.0,66,0.00,,,0.00,,2013-08-04 19:53:00,
2013-08-04 16:02:00,77.0,65.0,29.95,ESE,115,0.0,0.0,66,0.00,,,0.00,,2013-08-04 20:02:00,
2013-08-04 16:12:00,77.0,65.0,29.95,ESE,115,0.0,0.0,66,0.00,,,0.00,,2013-08-04 20:12:00,
2013-08-04 16:22:00,78.0,68.0,29.94,East,85,0.0,0.0,72,0.00,,,0.00,,2013-08-04 20:22:00,
2013-08-04 16:33:00,77.0,66.0,29.95,SE,134,0.0,0.0,70,0.00,,,0.00,,2013-08-04 20:33:00,
2013-08-04 16:43:00,77.0,63.0,29.95,West,281,0.0,0.0,63,0.00,,,0.00,,2013-08-04 20:43:00,
2013-08-04 16:53:00,77.0,67.0,29.94,SE,132,0.0,0.0,72,0.00,,,0.00,,2013-08-04 20:53:00,
2013-08-04 17:02:00,76.0,63.0,29.95,SSE,164,0.0,0.0,65,0.00,,,0.00,,2013-08-04 21:02:00,
2013-08-04 17:12:00,76.0,63.0,29.95,SSE,164,0.0,0.0,65,0.00,,,0.00,,2013-08-04 21:12:00,
2013-08-04 17:22:00,76.0,67.0,29.93,ENE,71,0.0,0.0,75,0.00,,,0.00,,2013-08-04 21:22:00,
2013-08-04 17:32:00,75.0,65.0,29.94,West,265,0.0,0.0,71,0.00,,,0.00,,2013-08-04 21:32:00,
2013-08-04 17:43:00,75.0,67.0,29.94,NNE,16,0.0,0.0,76,0.00,,,0.00,,2013-08-04 21:43:00,
2013-08-04 17:53:00,75.0,67.0,29.94,NNE,16,0.0,0.0,76,0.00,,,0.00,,2013-08-04 21:53:00,
2013-08-04 18:02:00,75.0,65.0,29.94,ENE,71,0.0,0.0,72,0.00,,,0.00,,2013-08-04 22:02:00,
2013-08-04 18:12:00,74.0,65.0,29.94,SW,233,0.0,0.0,73,0.00,,,0.00,,2013-08-04 22:12:00,
2013-08-04 18:22:00,74.0,64.0,29.94,ENE,74,0.0,0.0,70,0.00,,,0.00,,2013-08-04 22:22:00,
2013-08-04 18:32:00,74.0,63.0,29.94,East,80,0.0,0.0,69,0.00,,,0.00,,2013-08-04 22:32:00,
2013-08-04 18:43:00,74.0,63.0,29.94,East,80,0.0,0.0,69,0.00,,,0.00,,2013-08-04 22:43:00,
2013-08-04 18:53:00,73.0,64.0,29.93,ENE,78,0.0,0.0,73,0.00,,,0.00,,2013-08-04 22:53:00,
2013-08-04 19:02:00,73.0,65.0,29.93,NNW,335,0.0,0.0,75,0.00,,,0.00,,2013-08-04 23:02:00,
2013-08-04 19:12:00,72.0,64.0,29.93,NNW,336,0.0,0.0,75,0.00,,,0.00,,2013-08-04 23:12:00,
2013-08-04 19:23:00,72.0,63.0,29.94,NNW,336,0.0,0.0,74,0.00,,,0.00,,2013-08-04 23:23:00,
2013-08-04 19:32:00,72.0,64.0,29.94,NNW,336,0.0,0.0,75,0.00,,,0.00,,2013-08-04 23:32:00,
2013-08-04 19:43:00,72.0,64.0,29.95,NNW,335,0.0,0.0,75,0.00,,,0.00,,2013-08-04 23:43:00,
2013-08-04 19:53:00,72.0,64.0,29.95,NNW,335,0.0,0.0,75,0.00,,,0.00,,2013-08-04 23:53:00,
2013-08-04 20:02:00,72.0,64.0,29.95,NNW,335,0.0,0.0,75,0.00,,,0.00,,2013-08-05 00:02:00,
2013-08-04 20:12:00,72.0,64.0,29.95,NNW,335,0.0,0.0,75,0.00,,,0.00,,2013-08-05 00:12:00,
2013-08-04 20:22:00,70.0,61.0,29.95,NNW,335,0.0,0.0,72,0.00,,,0.00,,2013-08-05 00:22:00,
2013-08-04 20:33:00,70.0,62.0,29.96,NNW,335,0.0,0.0,76,0.00,,,0.00,,2013-08-05 00:33:00,
2013-08-04 20:42:00,70.0,61.0,29.96,NNW,335,0.0,0.0,74,0.00,,,0.00,,2013-08-05 00:42:00,
2013-08-04 20:53:00,70.0,61.0,29.96,NNW,335,0.0,0.0,74,0.00,,,0.00,,2013-08-05 00:53:00,
2013-08-04 21:02:00,69.0,61.0,29.96,NW,319,0.0,0.0,76,0.00,,,0.00,,2013-08-05 01:02:00,
2013-08-04 21:12:00,69.0,61.0,29.96,NW,304,0.0,0.0,75,0.00,,,0.00,,2013-08-05 01:12:00,
2013-08-04 21:22:00,68.0,61.0,29.97,NW,304,0.0,0.0,78,0.00,,,0.00,,2013-08-05 01:22:00,
2013-08-04 21:33:00,68.0,61.0,29.97,NW,304,0.0,0.0,78,0.00,,,0.00,,2013-08-05 01:33:00,
2013-08-04 21:42:00,68.0,61.0,29.97,NW,304,0.0,0.0,78,0.00,,,0.00,,2013-08-05 01:42:00,
2013-08-04 21:52:00,68.0,61.0,29.98,NW,304,0.0,0.0,78,0.00,,,0.00,,2013-08-05 01:52:00,
2013-08-04 22:02:00,68.0,61.0,29.98,NW,304,0.0,0.0,78,0.00,,,0.00,,2013-08-05 02:02:00,
2013-08-04 22:12:00,67.0,60.0,29.98,NW,304,0.0,0.0,78,0.00,,,0.00,,2013-08-05 02:12:00,
2013-08-04 22:22:00,67.0,60.0,29.98,NW,304,0.0,0.0,78,0.00,,,0.00,,2013-08-05 02:22:00,
2013-08-04 22:33:00,67.0,60.0,29.98,NW,304,0.0,0.0,78,0.00,,,0.00,,2013-08-05 02:33:00,
2013-08-04 22:43:00,67.0,60.0,29.98,NW,304,0.0,0.0,78,0.00,,,0.00,,2013-08-05 02:43:00,
2013-08-04 22:53:00,66.0,59.0,29.98,NW,304,0.0,0.0,79,0.00,,,0.00,,2013-08-05 02:53:00,
2013-08-04 23:02:00,66.0,59.0,29.98,NW,304,0.0,0.0,79,0.00,,,0.00,,2013-08-05 03:02:00,
2013-08-04 23:12:00,66.0,59.0,29.99,NW,304,0.0,0.0,79,0.00,,,0.00,,2013-08-05 03:12:00,
2013-08-04 23:22:00,66.0,59.0,29.99,NW,304,0.0,0.0,79,0.00,,,0.00,,2013-08-05 03:22:00,
2013-08-04 23:32:00,66.0,60.0,29.99,NW,304,0.0,0.0,80,0.00,,,0.00,,2013-08-05 03:32:00,
2013-08-04 23:53:00,66.0,60.0,29.99,NW,304,0.0,0.0,81,0.00,,,0.00,,2013-08-05 03:53:00,